Location: NJAA Observatory
(40.6819°N, 74.8979°W)
Time: 13:05:06
(UTC-04:00)

Daily predictions for brighter satellites

Satellite Brightness Start Highest point End
(mag) Time Altitude Azimuth Time Altitude Azimuth Time Altitude Azimuth
Meteor 1-22 Rocket 4.1 19:05:16 10° S 19:10:33 65° E 19:15:47 10° NNE
MSX 4.1 19:07:01 10° S 19:12:44 79° WSW 19:18:32 10° NNW
USA 215 3.8 19:07:04 10° ENE 19:13:05 38° SE 19:19:03 10° SSW
Cosmos 2369 Rocket 3.9 19:11:00 10° NNE 19:14:05 15° NE 19:17:11 10° E
SKYMED 2 3.7 19:09:59 10° NNE 19:14:20 87° WNW 19:18:41 10° SSW
Cosmos 1707 3.6 19:12:44 10° NNW 19:16:31 55° W 19:20:17 10° S
Cosmos 1408 Rocket 4.1 19:12:57 10° N 19:17:00 36° ENE 19:21:00 10° SE
Meteor 1-24 Rocket 3.7 19:12:17 10° N 19:17:56 83° E 19:23:21 10° S
IDEFIX/ARIANE 42P 4.0 19:13:29 10° S 19:18:27 44° W 19:23:29 10° NNW
Cosmos 1603 4.4 19:15:31 10° SSE 19:20:35 34° ESE 19:25:41 10° NE
GPS 2-04 Rocket1 4.3 19:18:46 10° SSW 19:21:04 17° SSE 19:23:25 10° ESE
Cosmos 1624 Rocket 4.4 19:16:29 10° NNW 19:21:41 69° WSW 19:26:49 10° S
CZ-2C R/B 4.5 19:20:57 10° SSW 19:25:22 32° W 19:29:42 10° NNW
NOAA 12 4.1 19:21:05 10° SSE 19:26:15 63° ENE 19:31:29 10° N
Aureole 2 Rocket 3.5 19:25:04 10° SSW 19:29:25 65° WNW 19:33:41 10° NNE
Cosmos 1470 4.4 19:27:37 10° ESE 19:29:44 14° E 19:31:52 10° NE
SL-8 R/B 4.3 19:25:45 10° SSW 19:30:08 37° SE 19:34:16 11° ENE
ATLAS CENTAUR R/B 3.5 19:27:38 10° SW 19:32:20 80° SE 19:47:25 10° NE
Cosmos 724 4.4 19:28:44 10° S 19:34:27 54° ESE 19:40:21 10° NE
SeaSat 1 4.1 19:35:13 13° ESE 19:35:13 13° ESE 19:36:55 10° SE
Cosmos 2333 Rocket 4.4 19:30:52 10° WSW 19:35:44 27° NW 19:40:37 10° N
SAR-Lupe-1 4.0 19:32:17 10° SSE 19:35:50 87° W 19:39:25 10° NNW
Okean 3 Rocket 4.4 19:31:58 10° NNW 19:36:27 57° W 19:40:53 10° S
SJ-6B 2.8 19:33:21 10° SSE 19:37:19 89° E 19:41:25 10° NNW
In-Cosmos 22 4.3 19:33:15 10° N 19:39:00 65° ENE 19:44:42 10° SSE
Resurs 1-3 4.1 19:35:08 10° SE 19:39:10 38° ENE 19:43:15 10° N
Helios 1A 3.3 19:36:34 10° SE 19:40:34 44° ENE 19:44:36 10° N
Meteor 1-29 3.6 19:37:22 10° NNE 19:40:35 33° E 19:43:45 10° SSE
FREGAT/IRIS 2.5 19:37:43 10° SSE 19:40:47 78° ENE 19:43:54 10° N
Resurs 01 Rocket 1.7 19:37:59 10° SSE 19:42:19 54° ENE 19:46:40 10° N
CZ-4B DEB 4.2 19:41:22 18° E 19:42:23 21° ENE 19:44:56 10° NNE
Cosmos 1674 3.9 19:41:49 10° NNE 19:44:59 23° ENE 19:46:25 19° ESE
Cosmos 1743 Rocket 4.1 19:42:03 10° N 19:46:10 36° ENE 19:50:14 10° SE
NOSS 3-2 (A) 3.9 19:40:21 10° SW 19:46:23 66° NW 19:53:00 10° NNE
FengYun 1-2 T 4.4 19:42:45 10° SE 19:48:05 52° ENE 19:53:23 10° N
Cosmos 1758 3.3 19:46:01 10° S 19:50:04 71° E 19:54:10 10° NNE
Cosmos 1452 Rocket 3.5 19:45:58 10° NNW 19:51:15 84° ENE 19:56:30 10° SSE
ATLAS 5 CENTAUR R/B 2.1 19:51:17 10° SW 19:56:01 72° NW 20:01:13 10° NNE
Abrixas 2.6 19:53:48 10° SW 19:56:43 52° SE 19:57:41 34° E
Nadezhda 4 Rocket 4.0 19:54:01 10° N 20:00:14 59° E 20:06:20 10° SSE
Cosmos 1346 3.0 19:58:29 10° N 20:01:26 56° E 20:02:37 30° SE
Meteor 2-12 Rocket 4.4 19:58:01 10° S 20:04:09 80° E 20:10:19 10° N
Meteor 1-21 Rocket 4.1 20:02:19 10° N 20:07:54 84° E 20:13:26 10° S
Cosmos 1092 Rocket 4.1 20:02:09 10° N 20:08:10 49° ENE 20:13:46 12° SSE
Cosmos 468 4.4 20:02:57 10° SSW 20:08:12 87° ESE 20:13:28 10° NNE
GP-B 4.0 20:04:40 10° NNE 20:08:19 28° E 20:08:19 28° E
ASTEX 1 3.4 20:06:58 10° NNE 20:11:47 53° E 20:16:32 10° S
Cosmos 1420 Rocket 3.9 20:07:05 10° NNW 20:12:24 72° ENE 20:16:34 17° SSE
SL-16 R/B 4.0 20:12:05 10° WSW 20:17:10 33° WNW 20:22:17 10° N
CENTAUR R/B 2.6 20:12:07 10° S 20:17:48 48° ESE 20:24:10 10° NE
Helios 1B rocket 2.8 20:13:47 10° N 20:17:52 65° WNW 20:21:56 10° SSW
Cosmos 1544 3.3 20:15:36 10° SSW 20:19:19 74° W 20:23:04 10° N
Cosmos 1634 Rocket 4.1 20:17:15 10° SSE 20:23:13 50° E 20:29:11 10° NNE
CZ-2D R/B 3.1 20:24:44 47° SE 20:25:41 69° ENE 20:29:34 10° N
Spot 2 Rocket 4.3 20:22:27 10° S 20:27:21 52° W 20:32:17 10° NNW
OAO 3 Rocket 3.9 20:24:33 10° WSW 20:28:59 39° S 20:30:04 34° SSE
Cosmos 1048 Rocket 3.9 20:25:45 10° SSW 20:31:04 89° WNW 20:36:21 10° NNE
Cosmos 1269 Rocket 4.1 20:26:20 10° SSW 20:31:36 76° WNW 20:36:55 10° NNE
FENGYUN 3A 3.6 20:28:51 11° SSE 20:33:56 85° WSW 20:39:22 10° NNW
Cosmos-2242 4.4 20:30:38 10° SSW 20:34:45 41° WNW 20:38:55 10° N
Envisat 4.1 20:39:20 28° NE 20:39:20 28° NE 20:42:42 10° N
H-2A R/B 2.8 20:39:09 58° S 20:39:51 81° W 20:43:45 10° NNW
Gbstr 26 Del rocket 3.2 20:38:03 10° SW 20:42:30 66° SE 20:42:57 62° ESE
Cosmos 2195 Rocket 4.5 20:37:14 10° N 20:43:30 61° E 20:45:27 43° SE
Cosmos 2151 3.6 20:39:38 10° N 20:42:41 42° NNE 20:42:41 42° NNE
Cosmos 1174 4.2 20:40:08 10° SSW 20:44:15 58° S 20:44:15 58° S
ISS -2.0 20:42:02 10° WSW 20:44:06 36° WSW 20:44:06 36° WSW
ALOS 2.8 20:42:16 16° S 20:45:56 58° W 20:50:34 10° NNW
BREEZE-M DEB (TANK) 3.5 20:39:34 10° WNW 20:50:56 58° N 20:52:03 47° NE
Cosmos 1842 Rocket 4.3 20:50:14 10° SSW 20:54:26 52° W 20:58:43 10° N
Cosmos 1500 Rocket 4.2 20:50:52 10° NNW 20:55:11 54° W 20:57:01 31° SSW
Cosmos 158 Rocket 3.7 20:51:19 10° SSW 20:56:12 87° WNW 21:01:07 10° NNE
USA 215 3.6 20:49:49 10° NE 20:56:16 62° NW 21:02:40 10° WSW
Cosmos 2369 Rocket 2.1 20:53:17 10° NNW 20:58:58 87° ENE 20:59:46 67° SSE
Cosmos 1943 Rocket 2.9 20:53:44 10° N 20:58:07 37° NE 20:58:07 37° NE
Cosmos 1943 3.1 20:53:32 10° SSW 20:59:10 85° WNW 21:04:50 10° NNE
Cosmos 1470 4.3 21:01:55 10° SW 21:05:30 35° WNW 21:09:06 10° N
Cosmos 2263 4.1 21:00:17 10° NNW 21:05:59 73° ENE 21:05:59 73° ENE
Cosmos 1627 Rocket 4.4 21:03:26 10° N 21:09:41 86° W 21:11:13 54° S
SL-8 R/B 4.2 21:07:52 10° WSW 21:12:17 56° NW 21:12:17 56° NW
SeaSat 1 3.7 21:07:51 10° NNE 21:15:13 31° SW 21:17:43 10° SSW
ERS-1 Rocket 3.6 21:15:21 48° N 21:15:21 48° N 21:18:59 10° N
Cosmos 1110 Rocket 4.4 21:18:05 10° NNW 21:22:20 58° NNW 21:22:20 58° NNW
Cosmos 2279 Rocket 4.4 21:46:27 60° NW 21:46:27 60° NW 21:52:03 10° N
CENTAUR R/B 3.9 22:02:59 10° WSW 22:08:38 35° NW 22:14:58 10° NNE
